Location: Terra Rouge Observatory
(46.0000°N, 62.7500°W)
Time: 03:19:07
(UTC-03:00)

NOSS 3-1 (A) - Visible Passes

Search period start: 26 June 2016 00:00
Search period end: 06 July 2016 00:00
Orbit: 856 x 1357 km, 63.4° (Epoch: 24 June)

Date Brightness Start Highest point End Pass type
(mag) Time Alt. Az. Time Alt. Az. Time Alt. Az.
26 Jun 5.1 01:12:42 10° W 01:18:14 33° NNW 01:24:24 10° NNE visible
26 Jun 6.1 03:06:53 10° NW 03:11:29 19° N 03:16:25 10° NE visible
26 Jun 3.7 22:36:41 10° S 22:42:14 44° ESE 22:48:21 10° NE visible
27 Jun 4.6 00:27:21 10° WSW 00:33:09 44° NW 00:39:39 10° NNE visible
27 Jun 6.0 02:21:16 10° WNW 02:26:00 20° NNW 02:31:07 10° NE visible
27 Jun 6.2 04:14:28 10° NNW 04:19:41 22° NNE 04:25:21 10° ENE visible
27 Jun 4.3 21:53:00 10° SSE 21:57:53 27° ESE 22:03:09 10° NE visible
27 Jun 3.9 23:42:15 10° SW 23:48:12 63° NW 23:54:54 10° NE visible
28 Jun 5.9 01:35:34 10° WNW 01:40:35 23° NNW 01:46:04 10° NNE visible
28 Jun 6.2 03:29:24 10° NW 03:34:13 19° N 03:39:24 10° NE visible
28 Jun 3.4 22:57:28 10° SW 23:03:25 89° SE 23:10:07 10° NE visible
29 Jun 5.5 00:49:55 10° W 00:55:16 29° NNW 01:01:10 10° NNE visible
29 Jun 6.3 02:44:05 10° NW 02:48:42 19° N 02:53:39 10° NE visible
29 Jun 6.1 04:36:06 10° NNW 04:42:11 29° NNE 04:48:50 10° E visible
29 Jun 3.5 22:13:02 10° SSW 22:18:49 59° ESE 22:25:16 10° NE visible
30 Jun 5.1 00:04:26 10° WSW 00:10:05 37° NW 00:16:24 10° NNE visible
30 Jun 6.2 01:58:34 10° NW 02:03:11 19° N 02:08:11 10° NE visible
30 Jun 6.3 03:51:18 10° NNW 03:56:51 24° NNE 04:02:52 10° ENE visible
30 Jun 4.4 23:19:11 10° WSW 23:25:03 50° NW 23:31:39 10° NNE visible
01 Jul 6.1 01:12:53 10° WNW 01:17:44 21° NNW 01:22:59 10° NNE visible
01 Jul 6.4 03:06:22 10° NW 03:11:25 21° NNE 03:16:52 10° ENE visible
01 Jul 3.8 22:34:13 10° SW 22:40:10 73° NW 22:46:54 10° NE visible
02 Jul 5.9 00:27:12 10° WNW 00:32:21 25° NNW 00:38:00 10° NNE visible
02 Jul 6.4 02:21:12 10° NW 02:25:55 19° N 02:30:59 10° NE visible
02 Jul 5.9 04:12:51 10° NNW 04:19:15 33° NNE 04:26:16 10° E visible
02 Jul 3.4 21:49:33 10° SSW 21:55:28 77° SE 22:02:06 10° NE visible
02 Jul 5.5 23:41:37 10° W 23:47:05 31° NNW 23:53:10 10° NNE visible
03 Jul 6.4 01:35:49 10° NW 01:40:24 19° N 01:45:20 10° NE visible
03 Jul 6.2 03:28:06 10° NNW 03:33:59 26° NNE 03:40:22 10° E visible
03 Jul 4.9 22:56:12 10° WSW 23:01:57 41° NW 23:08:24 10° NNE visible
04 Jul 6.3 00:50:13 10° WNW 00:54:54 20° N 00:59:59 10° NE visible
04 Jul 6.4 02:43:15 10° NNW 02:48:36 22° NNE 02:54:23 10° ENE visible
04 Jul 5.1 04:34:13 10° NNW 04:41:20 50° NE 04:49:11 10° ESE visible
04 Jul 4.3 22:11:03 10° WSW 22:16:59 58° NW 22:23:39 10° NE visible
05 Jul 6.1 00:04:32 10° WNW 00:09:28 23° NNW 00:14:52 10° NNE visible
05 Jul 6.4 01:58:13 10° NW 02:03:08 20° N 02:08:25 10° NE visible
05 Jul 5.6 03:49:33 10° NNW 03:56:16 38° NE 04:03:38 10° ESE visible
05 Jul 5.8 23:18:51 10° W 23:24:08 27° NNW 23:29:58 10° NNE visible
